Hourly Data Report for October 01, 2017

All times are specified in Local Standard Time (LST). Add 1 hour to adjust for Daylight Saving Time where and when it is observed.

TERRACE A
BRITISH COLUMBIA

54°28'07.000" N
128°34'42.000" W
217.30 m
1068134
71951
YXT

Download Data

Hourly Data (October 2017)
Hourly Data Report for October 1, 2017
Temp Definition
°C
Dew Point Temp Definition
°C
Rel Hum Definition
%
Wind Dir Definition
10's deg

Wind Spd Definition
km/h
Visibility Definition
km
Stn Press Definition
kPa
Hmdx Definition


Wind Chill Definition


Weather Definition


TIME
00:00 Legend Double Dagger 4.1 2.3 88 36 2 24.1 99.57     LegendNANA
01:00 Legend Double Dagger 4.2 3.4 95 36 2 24.1 99.63     Clear
02:00 Legend Double Dagger 3.7 3.0 95 36 2 24.1 99.69     LegendNANA
03:00 Legend Double Dagger 3.5 3.0 96 36 4 24.1 99.75     LegendNANA
04:00 Legend Double Dagger 3.5 3.0 97 36 12 24.1 99.80     Clear
05:00 Legend Double Dagger 3.4 3.0 97 32 3 24.1 99.85     LegendNANA
06:00 Legend Double Dagger 2.1 1.7 97 2 4 4.8 99.89     Fog
07:00 Legend Double Dagger 3.3 2.9 98 35 7 0.4 99.94     Fog
08:00 Legend Double Dagger 3.8 3.4 98 36 3 0.6 100.00     Fog
09:00 Legend Double Dagger 4.7 4.4 98 32 5 1.0 100.02     Fog
10:00 Legend Double Dagger 5.2 4.7 96 32 3 3.2 100.04     Fog
11:00 Legend Double Dagger 7.4 4.8 83 33 4 24.1 100.03     LegendNANA
12:00 Legend Double Dagger 10.4 5.5 72 36 7 32.2 99.99     LegendNANA
13:00 Legend Double Dagger 11.7 5.3 65 28 8 32.2 99.99     Mainly Clear
14:00 Legend Double Dagger 13.2 5.2 58 5 10 32.2 99.96     LegendNANA
15:00 Legend Double Dagger 14.2 4.5 52 29 9 32.2 99.94     LegendNANA
16:00 Legend Double Dagger 14.5 5.0 53 25 4 32.2 99.94     Mainly Clear
17:00 Legend Double Dagger 14.4 0.7 39 34 8 32.2 99.96     LegendNANA
18:00 Legend Double Dagger 12.0 1.4 48 1 14 32.2 100.04     LegendNANA
19:00 Legend Double Dagger 11.8 2.6 53 1 18 32.2 100.11     Mainly Clear
20:00 Legend Double Dagger 9.5 4.7 72 2 15 24.1 100.20     LegendNANA
21:00 Legend Double Dagger 9.1 4.4 73 36 19 24.1 100.22     LegendNANA
22:00 Legend Double Dagger 8.5 4.5 76 36 20 24.1 100.28     Clear
23:00 Legend Double Dagger 7.7 3.8 76 35 28 24.1 100.30     LegendNANA

Notes on Data Quality.

Legend

  • E = Estimated
  • M = Missing
  • NA = Not Available
  • ‡ = Partner data that is not subject to review by the National Climate Archives
Date modified: